Sigfox identifier Datetime Temperature Humidity SNR
003929ED 2018-10-09 09:18:13 21 41 18.4
003929ED 2018-10-09 08:11:06 21 41 18.4
003929ED 2018-10-09 07:03:56 21 40 18.4
003929ED 2018-10-09 05:56:49 21 40 18.2
003929ED 2018-10-09 04:49:39 21 39 18.3
003929ED 2018-10-09 01:28:14 21 38 18.1
003929ED 2018-10-09 00:21:02 21 38 17.9
003929ED 2018-10-08 23:13:49 21 37 17.9
003929ED 2018-10-08 22:06:41 21.1 37 17.8
003929ED 2018-10-08 20:59:31 21.2 37 13.4
003929ED 2018-10-08 19:52:16 21.3 37 13.2
003929ED 2018-10-08 18:45:08 21.3 37 13.4
003929ED 2018-10-08 17:38:00 21.3 36 13.4
003929ED 2018-10-08 16:30:42 21.2 36 13.2
003929ED 2018-10-08 15:23:28 21.2 36 13.3
003929ED 2018-10-08 14:16:12 21 35 13.4
003929ED 2018-10-08 13:09:01 20.9 35 12.8
003929ED 2018-10-08 12:01:49 20.8 35 13
003929ED 2018-10-08 10:54:31 20.7 31 13.2
003929ED 2018-10-08 09:47:12 20.6 30 13.3
003929ED 2018-10-08 08:39:54 20.4 30 13.5
003929ED 2018-10-08 07:32:37 20.4 31 13.4
003929ED 2018-10-08 06:25:17 20.4 32 13.5
003929ED 2018-10-08 05:17:57 20.4 33 13.5
003929ED 2018-10-08 04:10:36 20.4 33 13.5
003929ED 2018-10-08 03:03:16 20.4 34 13.5
003929ED 2018-10-08 01:55:56 20.4 34 13.4
003929ED 2018-10-08 00:48:33 20.4 35 13.3
003929ED 2018-10-07 23:41:10 20.6 35 13.2
003929ED 2018-10-07 22:33:49 20.6 36 13.2
003929ED 2018-10-07 21:26:30 20.6 36 13.2
003929ED 2018-10-07 20:19:13 20.6 37 13.2
003929ED 2018-10-07 19:11:54 20.6 37 13.7
003929ED 2018-10-07 18:04:37 20.6 37 13.6
003929ED 2018-10-07 16:57:21 20.6 37 13.5
003929ED 2018-10-07 15:50:04 20.6 37 13.8
003929ED 2018-10-07 14:42:48 20.6 37 13.6
003929ED 2018-10-07 13:35:33 20.6 37 13.5
003929ED 2018-10-07 12:28:14 20.6 37 13.5
003929ED 2018-10-07 11:20:58 20.6 37 13.5
003929ED 2018-10-07 10:13:40 20.6 37 13.5
003929ED 2018-10-07 09:06:20 20.6 37 13.6
003929ED 2018-10-07 07:59:04 20.6 38 13.5
003929ED 2018-10-07 06:51:43 20.6 38 13.3
003929ED 2018-10-07 05:44:28 20.6 38 13.5
003929ED 2018-10-07 04:37:10 20.6 38 13.4
003929ED 2018-10-07 03:29:53 20.6 39 13.4
003929ED 2018-10-07 02:22:33 20.7 39 13.4
003929ED 2018-10-07 01:15:14 20.8 39 13.3
003929ED 2018-10-07 00:07:58 20.8 39 13.3
003929ED 2018-10-06 23:00:41 20.8 39 13.3
003929ED 2018-10-06 21:53:26 20.8 39 13.6
003929ED 2018-10-06 20:46:06 20.8 39 14.3
003929ED 2018-10-06 19:38:48 20.8 39 14.7
003929ED 2018-10-06 18:31:28 20.8 39 14.8
003929ED 2018-10-06 17:24:05 20.9 39 14.8
003929ED 2018-10-06 16:16:53 20.8 39 15
003929ED 2018-10-06 15:09:32 20.9 39 14.7
003929ED 2018-10-06 14:02:15 20.8 39 14.7
003929ED 2018-10-06 12:55:00 20.8 39 15.1
003929ED 2018-10-06 11:47:43 20.8 39 15.3
003929ED 2018-10-06 10:40:28 20.8 39 15.7
003929ED 2018-10-06 09:33:11 20.8 39 15.7
003929ED 2018-10-06 08:25:58 20.8 39 15.7
003929ED 2018-10-06 06:11:33 20.9 40 15.7
003929ED 2018-10-06 05:04:17 21 40 15.7
003929ED 2018-10-06 03:57:01 21 41 15.7
003929ED 2018-10-06 02:49:48 21 41 15.7
003929ED 2018-10-06 01:42:36 21 41 15.7
003929ED 2018-10-06 00:35:25 21.2 41 15.8
003929ED 2018-10-05 23:28:15 21.3 42 15.7
003929ED 2018-10-05 22:20:59 21.3 43 16.3
003929ED 2018-10-05 21:13:45 21.3 43 16.4
003929ED 2018-10-05 20:06:32 21.4 44 16.6
003929ED 2018-10-05 18:59:19 21.5 44 16.7
003929ED 2018-10-05 17:52:04 21.7 44 16.8
003929ED 2018-10-05 16:44:53 21.7 45 16.8
003929ED 2018-10-05 15:37:36 21.7 46 16.5
003929ED 2018-10-05 14:30:19 21.7 46 16.4
003929ED 2018-10-05 13:23:03 21.6 45 16.4
003929ED 2018-10-05 12:15:53 21.5 44 16.6
003929ED 2018-10-05 11:08:32 21.3 40 16.5
003929ED 2018-10-05 10:01:20 21.1 37 16.7
003929ED 2018-10-05 08:54:08 20.8 34 16.9
003929ED 2018-10-05 07:46:53 20.8 31 16.7
003929ED 2018-10-05 05:32:23 20.6 29 16.3
003929ED 2018-10-05 04:25:08 20.6 29 15.8
003929ED 2018-10-05 03:17:53 20.8 29 16.1
003929ED 2018-10-05 02:10:37 20.8 29 16.2
003929ED 2018-10-05 01:03:22 20.8 29 16.5
003929ED 2018-10-04 23:56:10 21 30 16.7
003929ED 2018-10-04 22:48:49 21 30 17.2
003929ED 2018-10-04 21:41:31 21 30 17.7
003929ED 2018-10-04 20:34:12 21.2 30 18.5
003929ED 2018-10-04 19:26:54 21.2 30 18.6
003929ED 2018-10-04 18:19:39 21.3 29 20.1
003929ED 2018-10-04 17:12:16 21.3 31 16.7
003929ED 2018-10-04 16:04:57 20.3 44 0